Aérodrome :
LOGIN :

S'inscrire | Disclaimer

   EN    FR    IT 

 










Légende :    VFR   VFR Marginal   IFR   IFR Intensif   IFR Très Intensif
Visi : 
Plafond : 
>= 8 km
>= 3000ft
5 à 8 km
1000 à 3000 ft
1500m à 5 km
500 à 1000 ft
800 à 1500m
200 à 500 ft
< 800m
< 200 ft
Symboles :   Orages  Brouillard  Fortes neiges  Fortes précipitations  Vent > 20 kt
SIGMETs :   Divers  Orages  Givrage  Turbulence  Onde Orograph.  Cendres Volcan.






- Altitude de l'aérodrome : 194 ft
- Code IATA : ANE


LFJR - Angers Marcé

DERNIER METAR :
  • 221100Z AUTO 32005KT 250V360 9999 BKN019/// BKN028/// BKN058/// ///CB 19/15 Q1013

METARs EXPIRÉS :
  • 221030Z AUTO 32006KT 290V350 9999 FEW001/// SCT043/// BKN094/// ///CB 20/16 Q1013
  • 221000Z AUTO 30006KT 250V350 9999 BKN021/// BKN039/// BKN054/// ///CB 18/15 Q1013
  • 220930Z AUTO 30005KT 260V360 9999 BKN016/// OVC100/// ///CB 20/16 Q1012
  • 220900Z AUTO 31003KT 240V010 9999 BKN014/// OVC094/// ///CB 19/16 Q1012
  • 220830Z AUTO 30003KT 250V330 9999 BKN014/// OVC094/// ///CB 18/15 Q1012

Prévision TAF périmée.



MET'MAP, la Météo Aéronautique d'un coup d'oeil ! - Copyright ORBIFLY Décembre 2007 - Disclaimer

ORBIFLY MET'MAP TEAM :

Programmation & Développement : Alexandra Zaïnal
Sur une idée originale de : Baudouin d'Aumeries
Assistance à la programmation : Marc-Olivier Méhu
Soutien technique & logistique : Manuel Goepfert

Contact : metmap@orbifly.com




SOURCES & CREDITS :

   NOAA